Location: ??????
(31.2056°N, 45.3906°E)
Time: 19:24:54
(UTC+00:00)

SL-8 Rocket - Pass Details

Date: 09 April 2020
Orbit: 957 x 990 km, 82.9° (Epoch: 28 May)

Event Time Altitude Azimuth Distance (km) Brightness Sun altitude
Rises 17:41:55 0° 354° (N) 3,705 7.5 -28.6°
Reaches altitude 10° 17:44:26 10° 355° (N) 2,754 6.8 -29.1°
Enters shadow 17:50:31 83° 20° (NNE) 1,002 3.9 -30.2°
